Regional Weather Roundup
Issued by NWS

Home | Current Version | Previous Version | Text Only | Print | Product List | Glossary On
Versions: 1 2 3 4 5 6 7 8 9 10 11 12 13 14 15 16 17 18 19 20 21 22 23 24 25 26 27 28 29 30 31 32 33 34 35 36 37 38 39 40 41 42 43 44 45 46 47 48 49 50
562
ASUS43 KBIS 110102
RWRND

NORTH DAKOTA REGIONAL WEATHER ROUNDUP
NATIONAL WEATHER SERVICE BISMARCK ND
700 PM CST SAT DEC 10 2016

NOTE: "FAIR" INDICATES FEW OR NO CLOUDS BELOW 12,000 FEET WITH NO
SIGNIFICANT WEATHER AND/OR OBSTRUCTIONS TO VISIBILITY.


NDZ001>003-009>011-017-110200-
NORTHWEST NORTH DAKOTA

CITY           SKY/WX    TMP DP  RH WIND       PRES   REMARKS
WILLISTON      LGT SNOW   3  -5  69 SE15G21   29.96S WCI -16
MINOT          CLOUDY    -5 -10  79 E12       30.08S WCI -23
MINOT AFB      CLOUDY    -7 -12  79 E13       30.08F WCI -27
$$

NDZ018>021-031>035-040>046-110200-
SOUTHWEST NORTH DAKOTA

CITY           SKY/WX    TMP DP  RH WIND       PRES   REMARKS
BISMARCK       CLOUDY    -2  -6  83 E13       30.05S WCI -20
DICKINSON      FLURRIES  -4  -9  79 E18       29.84F WCI -26
GARRISON         N/A     -2  -8  76 E15       30.01F WCI -22
HETTINGER ARPT CLOUDY    -2  -6  83 E14       29.86F WCI -21
$$

NDZ004>008-012>016-024-026-027-054-110200-
NORTHEAST NORTH DAKOTA

CITY           SKY/WX    TMP DP  RH WIND       PRES   REMARKS
GRAND FORKS    CLOUDY    -3  -9  75 NE6       30.27F WCI -15
GRND FRKS AFB  CLOUDY    -4 -10  78 E3        30.27R
DEVILS LAKE    CLOUDY    -5  -9  83 E14       30.16F WCI -25
$$

NDZ022-023-025-028>030-036>039-047>053-110200-
SOUTHEAST NORTH DAKOTA

CITY           SKY/WX    TMP DP  RH WIND       PRES   REMARKS
FARGO          CLOUDY     2  -5  72 NE9       30.22F WCI -13
JAMESTOWN      CLOUDY    -1  -6  79 E16       30.10F WCI -21
$$





USA.gov is the U.S. government's official web portal to all federal, state and local government web resources and services.